Location: Niles Junction
(37.5763°N, 121.9714°W)
Time: 03:05:50
(UTC+00:00)

Cosmos 2228 - Pass Details

Date: 29 October 2020
Orbit: 590 x 617 km, 82.5° (Epoch: 23 November)

Event Time Altitude Azimuth Distance (km) Brightness Sun altitude
Rises 12:57:12 0° 347° (NNW) 2,881 6.3 -19.0°
Reaches altitude 10° 12:59:27 10° 343° (NNW) 1,976 5.4 -18.6°
Maximum altitude 13:03:43 53° 267° (W) 756 3.1 -17.7°
Drops below altitude 10° 13:07:58 10° 190° (S) 1,971 5.6 -16.9°
Sets 13:10:13 0° 186° (S) 2,873 6.5 -16.4°
